Location: Luxembourg
(49.6117°N, 6.1300°E)
Time: 23:33:11
(UTC+01:00)

X-37B - Pass Details

Date: 08 December 2021
Orbit: 334 x 337 km, 45.0° (Epoch: 11 January)

Event Time Altitude Azimuth Distance (km) Brightness Sun altitude
Rises 18:33:44 0° 223° (SW) 2,096 5.3 -18.1°
Reaches altitude 10° 18:36:09 10° 202° (SSW) 1,262 3.6 -18.5°
Enters shadow 18:37:40 16° 170° (S) 966 2.6 -18.7°
